Volver al catálogo

CZ-6A DEB

ActivoPO
NORAD 61121·DEBRIS·🇨🇳 China

Lanzado Aug 6, 2024 desde Taiyuan Satellite Launch Center

Loading…

Próximos Pases (próximas 24 horas)

TLE

ActualizadoSource: Space-Track

Época: Sep 14, 2026, 10:23 UTC

1 61121U 24140PP  26257.43306193  .00000502  00000-0  15009-3 0  9998
2 61121  88.9397 256.4995 0074608  49.3069 311.4582 14.39760505108781

Sigue CZ-6A DEB en tiempo real con AllMySat

Download on the App Store